Location: Marcé
(47.5801°N, 0.3280°W)
Time: 19:27:04
(UTC+01:00)

Explorer 7 - Pass Details

Date: 01 December 2021
Orbit: 483 x 674 km, 50.3° (Epoch: 17 January)

Event Time Altitude Azimuth Distance (km) Brightness Sun altitude
Rises 12:40:18 0° 290° (WNW) 2,620 10.1 20.5°
Reaches altitude 10° 12:42:32 10° 288° (WNW) 1,710 9.2 20.5°
Maximum altitude 12:46:21 67° 206° (SSW) 534 7.5 20.5°
Drops below altitude 10° 12:50:04 10° 123° (ESE) 1,661 9.8 20.5°
Sets 12:52:13 0° 121° (ESE) 2,536 10.6 20.5°
